Regional Weather Roundup
Issued by NWS

Home | Current Version | Previous Version | Graphics & Text | Print | Product List | Glossary On
Versions: 1 2 3 4 5 6 7 8 9 10 11 12 13 14 15 16 17 18 19 20 21 22 23 24 25 26 27 28 29 30 31 32 33 34 35 36 37 38 39 40 41 42 43 44 45 46 47 48 49 50
000
ASUS45 KBOU 190610
RWRCO

WEATHER ROUNDUP FOR COLORADO
NATIONAL WEATHER SERVICE DENVER/BOULDER CO
1100 PM MST THU JAN 18 2018

NOTE: "FAIR" INDICATES FEW OR NO CLOUDS BELOW 12000 FEET WITH NO
SIGNIFICANT WEATHER AND/OR OBSTRUCTIONS TO VISIBILITY.

COZ001>005-013-030-031-190700-
...NORTHWEST COLORADO...

CITY           SKY/WX    TMP DP  RH WIND       PRES   REMARKS
CRAIG          FAIR      22  15  75 CALM      30.08F
HAYDEN         FAIR     N/A N/A N/A E13       30.10F
MEEKER         FAIR      30  21  69 E5        30.09F WCI  25
RABBIT EARS PA FAIR      28  19  69 S8        30.17F WCI  20
STEAMBOAT SPGS FAIR      19  15  83 CALM      30.11F
WALDEN         FAIR      30  10  43 S8        30.11F WCI  23
$$

COZ006>008-011-190700-
...WEST CENTRAL VALLEYS...

CITY           SKY/WX    TMP DP  RH WIND       PRES   REMARKS
GRAND JUNCTION FAIR      31  19  61 SE10      30.14F WCI  22
MONTROSE       FAIR      26  17  68 SE7       30.19F WCI  18
EAGLE          FAIR      20  12  71 CALM      30.21F
RIFLE          FAIR      27  21  78 CALM      30.16F
DELTA          FAIR      31  17  55 CALM      30.19F
NUCLA          FAIR      32  19  59 E8        30.22F WCI  25
$$

COZ017>023-064>068-190700-
...SOUTHWEST COLORADO...

CITY           SKY/WX    TMP DP  RH WIND       PRES   REMARKS
DURANGO        FAIR      26  18  71 N5        30.22S WCI  20
CORTEZ         FAIR      22  17  81 NE5       30.22S WCI  16
PAGOSA SPRINGS FAIR      24  17  72 CALM      30.24S
TELLURIDE      FAIR      33  14  45 SE5       30.26S WCI  28
WOLF CREEK PAS FAIR      30   7  37 SW12      30.37S WCI  21
$$

COZ009-010-012-014-032>034-037-058>063-190700-
...CENTRAL COLORADO...

CITY           SKY/WX    TMP DP  RH WIND       PRES   REMARKS
ASPEN          FAIR      24  13  62 S7        30.16F WCI  16
BUENA VISTA    FAIR      22   7  51 W3        30.16S
COPPER MTN     NOT AVBL
BERTHOUD PASS  FAIR      27  16  63 W24G32    30.26S WCI  12
COTTONWOOD PAS   N/A     45  12  26 CALM      30.20R
GUNNISON       FAIR      15   8  73 CALM      30.26S
KREMMLING      FAIR      18  12  79 CALM      30.21F
LEADVILLE      FAIR      23  10  57 E5        30.20S WCI  17
MONARCH PASS   FAIR      27   9  46 W36       30.38S WCI   9
SALIDA         FAIR      33   5  30 W3        30.21R
SUNLIGHT       FAIR      28  12  50 S12G17    30.26F WCI  18
WILKERSON PASS FAIR      34   1  25 W9G20     30.24S WCI  26
$$

COZ069>075-190700-
...SAN LUIS VALLEY/SANGRE DE CRISTO MOUNTAINS...

CITY           SKY/WX    TMP DP  RH WIND       PRES   REMARKS
ALAMOSA        FAIR      14  -2  49 NW3       30.19F
DEL NORTE      FAIR      22   2  42 W8        30.22S WCI  12
LA VETA PASS   FAIR      30   3  31 SW30G41     N/A  WCI  15
SAGUACHE       FAIR      19   3  49 NW5       30.22S WCI  13
$$

COZ035-036-038>040-190700-
...NORTHERN COLORADO FRONT RANGE...

CITY           SKY/WX    TMP DP  RH WIND       PRES   REMARKS
DENVER INTL AP FAIR      44  12  27 S16       29.93F
DMNS CITY PARK NOT AVBL
AURORA         MOCLDY    40  12  31 S12       29.95F
FRONT RANGE AP FAIR      37  19  48 S10G16    29.94F
ERIE MUNI ARPT FAIR      28  21  74 CALM      29.98F
BOULDER MUN AP FAIR      41  18  38 CALM      29.92F
CENTENNIAL     FAIR      37  10  32 SE8       29.96S
BROOMFIELD     FAIR      45  14  29 SW7       29.94F
FORT COLLINS   FAIR      31  24  75 S7        29.91F WCI  24
LONGMONT       FAIR      31  22  66 CALM      29.94F
$$

COZ041-046-047-076>085-087-088-190700-
...PIKES PEAK/PALMER DIVIDE AND SOUTHERN FOOTHILLS...

CITY           SKY/WX    TMP DP  RH WIND       PRES   REMARKS
COLO. SPRINGS  FAIR      31   7  36 N8        30.01F WCI  23
A. F. ACADEMY  FAIR      27   8  45 N10       30.01F WCI  17
SCHRIEVER AFB  FAIR      31   8  38 CALM      30.01F
CHEYENNE MTN   FAIR      44  10  25 CALM      29.97F
ELLICOTT         N/A    N/A N/A N/A CALM      29.99F
FALCON         FAIR      30   6  35 W8        30.03S WCI  22
FORT CARSON    CLEAR     33  11  40 NW10      29.99F WCI  25
LIMON          FAIR      22  12  65 N7        29.96F WCI  13
MONUMENT HILL  FAIR      36   9  32 S10       30.03S
CANON CITY     FAIR      46  12  25 W17       29.97F
WALSENBURG     FAIR      50   7  17 W16G23    30.00F
TRINIDAD       FAIR      41   7  24 W15       30.01S
$$

COZ042>045-048>051-090-091-190700-
...NORTHEAST COLORADO...

CITY           SKY/WX    TMP DP  RH WIND       PRES   REMARKS
GREELEY ARPT   FAIR      26  16  65 S5        29.91F WCI  20
AKRON          FAIR      45   8  22 SW15      29.91F
BURLINGTON     FAIR      36  16  44 SW9       29.93F
WRAY           FAIR      32  19  59 W3        29.90S
YUMA           FAIR      32  14  47 W9        29.90S WCI  24
STERLING       FAIR      28  21  74 SW5       29.89F WCI  23
HOLYOKE        FAIR      34  27  75 W7        29.89S WCI  28
FORT MORGAN    FAIR      27  15  61 W8        29.92F WCI  19
$$

COZ086-089-092>099-190700-
...SOUTHEAST COLORADO...

CITY           SKY/WX    TMP DP  RH WIND       PRES   REMARKS
PUEBLO         FAIR      30  12  47 W3        29.97F
LA JUNTA       FAIR      36  13  38 SW7       29.95F
LAMAR          FAIR      20   3  48 SW7       29.93F WCI  11
SPRINGFIELD      N/A     30   6  36 SW5       29.94F WCI  25
$$



USA.gov is the U.S. government's official web portal to all federal, state and local government web resources and services.